Regional Weather Roundup
Issued by NWS

Home | Current Version | Previous Version | Graphics & Text | Print | Product List | Glossary On
Versions: 1 2 3 4 5 6 7 8 9 10 11 12 13 14 15 16 17 18 19 20 21 22 23 24 25 26 27 28 29 30 31 32 33 34 35 36 37 38 39 40 41 42 43 44 45 46 47 48 49 50
000
ASUS43 KDMX 270907
RWRIA

WEATHER ROUNDUP FOR IOWA
NATIONAL WEATHER SERVICE DES MOINES IA
400 AM CDT FRI MAR 27 2015

NOTE: "FAIR" INDICATES FEW OR NO CLOUDS BELOW 12,000 FEET WITH NO
SIGNIFICANT WEATHER AND/OR OBSTRUCTIONS TO VISIBILITY.

* - THESE STATIONS ARE NOT NWS STATIONS...THUS NOT UNDER NWS
QUALITY CONTROL.  THEY ALSO DO NOT REPORT WEATHER SUCH
AS PRECIPITATION OR FOG.

IAZ001>003-012>014-020>022-031>034-043>046-271000-
   NORTHWEST IOWA

CITY           SKY/WX    TMP DP  RH WIND       PRES   REMARKS
CARROLL *      CLEAR     19  18  93 NW6       30.22S WCI  11
CHEROKEE *     CLEAR     21  16  79 N6        30.24F WCI  14
DENISON *      CLEAR     23  19  86 N7        30.21F WCI  15
LE MARS *      CLEAR     21  16  79 CALM      30.26S
ORANGE CITY *  CLEAR     23  14  68 N7        30.24S WCI  15
SHELDON *      CLEAR     16  12  86 N8        30.23S WCI   5
SIOUX CITY     CLEAR     25  15  66 N8        30.27S WCI  16
SPENCER        CLEAR     21  14  74 N10       30.23S WCI  10
STORM LAKE *   CLEAR     21  14  73 N10       30.22F WCI  10
$$

IAZ055>058-069>071-079>083-090>094-271000-
   SOUTHWEST IOWA

CITY           SKY/WX    TMP DP  RH WIND       PRES   REMARKS
ATLANTIC *     CLEAR     23  19  86 N8        30.22S WCI  14
AUDUBON *      CLEAR     23  18  80 NW6       30.21S WCI  16
CLARINDA *     PTCLDY    30  25  80 N14       30.23R WCI  20
COUNCIL BLFS * CLEAR     27  21  80 N8        30.23S WCI  18
CRESTON *      CLEAR     25  21  86 N9        30.18S WCI  15
HARLAN  *      CLEAR     25  23  93 N8        30.25F WCI  16
LAMONI         CLEAR     28  21  75 N8        30.17S WCI  20
RED OAK *      CLEAR     27  23  86 N9        30.22S WCI  17
SHENANDOAH *   PTCLDY    30  25  80 N9        30.23S WCI  22
$$

IAZ047>049-059>061-072>074-084-271000-
   CENTRAL IOWA

CITY           SKY/WX    TMP DP  RH WIND       PRES   REMARKS
AMES           PTCLDY    27  17  66 N12       30.20R WCI  17
ANKENY *       CLOUDY    30  16  55 N9        30.19S WCI  22
CHARITON *     CLOUDY    30  21  69 N10       30.16F WCI  21
DES MOINES     MOCLDY    31  14  49 NE14      30.20R WCI  21
GRINNELL*      PTCLDY    27  19  74 N7        30.16F WCI  19
KNOXVILLE *    CLOUDY    32  18  55 N12       30.16S WCI  23
MARSHALLTOWN   PTCLDY    26  19  74 N12       30.17R WCI  16
PELLA *        CLOUDY    30  23  74 N7        30.18S WCI  23
PERRY *          N/A     28  19  69 N8        30.21S WCI  20
$$

IAZ004>006-015-016-023>025-035-036-271000-
   NORTH CENTRAL IOWA

CITY           SKY/WX    TMP DP  RH WIND       PRES   REMARKS
ALGONA *       CLEAR     23  19  86 N8        30.22S WCI  14
CLARION *      CLEAR     25  21  86 N7        30.20S WCI  17
ESTHERVILLE    CLEAR     20  14  77 N10       30.22S WCI   9
FORT DODGE *   CLEAR     25  16  68 N6        30.21S WCI  18
MASON CITY     CLEAR     19  15  84 N7        30.21R WCI  10
FOREST CITY *  CLEAR     21  18  86 N7        30.20S WCI  13
IOWA FALLS *     N/A     27  19  74 N10       30.19S WCI  17
$$

IAZ007>011-017>019-026>030-037>042-050>054-066-271000-
   NORTHEAST IOWA

CITY           SKY/WX    TMP DP  RH WIND       PRES   REMARKS
CEDAR RAPIDS   MOCLDY    26  21  81 NW7       30.13S WCI  18
CHARLES CITY * CLEAR     23  16  74 N8        30.19R WCI  14
CLINTON *      MOCLDY    28  19  69 N8        30.14F WCI  20
DECORAH *      CLEAR     23  10  58 NE5       30.17R WCI  17
DUBUQUE        CLOUDY    25  12  58 NE12      30.13R WCI  14
MONTICELLO *   CLOUDY    30  21  69 N12       30.13S WCI  21
OELWEIN *      CLEAR     25  18  74 N10       30.16R WCI  15
WATERLOO       CLEAR     23  17  78 N12       30.17R WCI  12
$$

IAZ064-065-067-068-078-271000-
   EAST CENTRAL IOWA

CITY           SKY/WX    TMP DP  RH WIND       PRES   REMARKS
DAVENPORT      CLOUDY    27  22  81 N6        30.12S WCI  20
IOWA CITY      CLOUDY    31  22  69 NW8       30.15F WCI  23
MT. PLEASANT * CLOUDY    30  21  69 NW10      30.13S WCI  21
MUSCATINE *    CLOUDY    30  23  74 NW9       30.14S WCI  22
QUAD CITIES    CLOUDY    31  22  69 N6        30.11S WCI  25
$$

IAZ062-063-075>077-085>089-095>099-271000-
   SOUTHEAST IOWA

CITY           SKY/WX    TMP DP  RH WIND       PRES   REMARKS
BURLINGTON     PTCLDY    30  21  69 NW9       30.12S WCI  22
FAIRFIELD *    CLOUDY    30  21  69 N10       30.14F WCI  21
FORT MADISON * MOCLDY    28  21  74 N9        30.13S WCI  20
KEOKUK *       CLOUDY    32  21  64 N7        30.12F WCI  26
OSKALOOSA *    CLOUDY    30  21  69 N9        30.16S WCI  22
CENTERVILLE *  CLOUDY    32  23  69 N10G16    30.16S WCI  24
OTTUMWA        CLOUDY    31  19  61 N12       30.15S WCI  22
WASHINGTON *   CLOUDY    30  23  74 N9        30.14S WCI  22
$$

ABBREVIATIONS USED IN REMARKS
   TC - TEMPERATURES IN CELSIUS
  WCI - WIND CHILL INDEX
   HX - HEAT INDEX
  VSB - VISIBILITY
$$




USA.gov is the U.S. government's official web portal to all federal, state and local government web resources and services.